Theta_e
343 345 347 348 349 351 352 353 352 356 353 350 346 344 343 345 347 351 356 358 358 358 361 358 360 362 361 366 364 361 358 356 359 355 353 355 357 356 354 354 357 359 360
339 340 344 348 348 349 351 353 353 354 353 350 349 347 347 347 350 353 356 358 358 358 358 360 361 362 361 365 363 361 359 354 356 351 351 342 347 349 351 352 352 356 357
338 340 341 342 344 347 350 352 354 354 354 355 350 350 352 352 351 352 353 355 358 358 358 360 362 363 364 359 364 361 358 353 357 358 349 342 339 345 348 348 350 352 353
339 340 342 342 341 343 347 352 353 354 353 356 353 354 348 347 351 352 354 355 359 357 357 360 362 365 362 363 363 361 358 357 351 355 355 354 351 341 341 347 348 350 351
335 338 340 343 344 344 343 346 352 353 354 354 354 353 353 352 352 353 357 358 358 357 355 358 362 363 363 364 364 363 360 355 353 352 353 351 351 351 344 340 346 348 347
330 335 340 343 344 345 345 344 350 352 354 354 354 355 354 355 351 353 351 352 353 353 356 358 362 364 364 363 363 364 363 360 357 354 354 351 347 347 345 342 345 346 350
331 335 337 339 342 343 344 345 348 350 351 353 354 355 355 357 357 357 351 354 351 351 353 360 361 361 365 365 366 365 363 362 357 356 357 353 352 352 348 346 344 344 351
337 333 337 338 339 341 343 345 346 350 348 351 353 357 357 353 353 356 354 352 352 352 357 359 360 362 363 364 365 363 362 364 360 359 358 362 364 363 353 348 346 341 344
339 336 337 336 338 339 342 345 346 350 352 350 352 357 357 356 355 358 356 353 359 353 355 359 361 361 361 363 364 360 361 362 360 358 358 354 353 353 354 354 350 345 338
338 338 338 337 337 338 342 345 347 348 352 354 353 353 354 357 358 358 355 358 357 357 356 360 360 360 358 356 358 355 359 361 359 357 355 354 356 361 364 360 353 350 345
332 334 337 339 339 340 341 343 345 347 348 351 353 353 354 355 356 355 356 357 358 359 359 357 354 353 353 353 353 354 357 357 356 356 352 352 352 354 355 352 350 348 347
340 336 335 336 337 338 344 346 347 347 346 350 353 353 354 355 353 354 355 357 358 358 353 348 346 346 348 350 351 350 351 350 349 349 343 343 347 353 353 350 348 347 348
339 341 342 343 343 343 344 343 345 346 348 350 350 352 353 353 354 357 356 358 356 350 343 342 340 344 346 348 350 347 347 346 344 347 345 344 348 348 347 346 346 348 347
334 337 337 338 340 344 347 346 344 345 348 349 351 351 353 353 352 354 354 352 354 345 340 340 340 341 344 345 346 348 346 343 343 344 340 339 340 342 347 344 347 346 345
332 335 336 337 338 340 344 348 347 347 345 348 352 354 356 355 355 351 348 350 349 347 343 341 339 340 342 342 342 340 340 340 339 337 336 338 340 340 341 344 343 348 345
329 331 332 333 335 340 341 346 347 347 345 345 343 346 347 349 349 349 348 348 346 343 342 340 340 340 340 333 334 338 342 342 342 340 337 335 339 337 335 335 335 339 336
326 328 329 330 332 334 341 342 346 347 344 344 342 343 343 342 345 346 344 342 342 341 341 340 339 339 338 330 329 332 342 342 341 340 336 332 331 334 333 330 329 328 328
326 326 325 327 330 333 334 337 343 345 343 342 339 342 341 339 338 338 340 340 338 339 340 341 340 337 335 326 325 329 339 338 337 338 335 334 333 334 335 333 329 327 326
325 325 326 327 328 328 329 330 333 340 342 341 340 339 339 337 334 334 335 338 338 340 339 338 333 329 326 320 321 329 334 332 329 329 329 327 324 316 319 325 320 321 320
325 326 326 327 328 329 328 327 327 329 334 340 341 343 340 338 337 338 338 339 338 337 336 329 329 324 328 316 317 327 329 327 325 325 321 314 319 313 314 324 322 320 318
326 327 326 325 327 329 328 325 326 325 329 334 341 340 342 338 335 335 336 336 335 335 330 326 328 328 328 321 314 318 329 326 324 320 319 320 311 309 309 313 322 319 324
325 325 325 326 327 328 326 324 323 326 327 329 334 340 339 338 335 336 334 334 331 325 322 322 323 324 327 318 314 315 317 320 319 319 322 320 309 307 309 317 310 311 319
324 326 325 323 323 324 323 320 322 323 324 326 330 335 338 337 337 334 329 327 326 321 320 318 320 321 324 323 312 311 312 313 320 322 314 311 309 309 312 311 312 315 318
324 322 323 321 319 320 320 319 321 326 323 321 327 332 331 332 331 329 328 325 325 322 322 320 321 321 321 323 321 318 317 313 318 316 319 315 315 313 317 317 318 318 317
321 323 322 319 319 321 319 321 325 326 322 321 326 319 313 311 310 311 318 320 322 323 323 321 322 321 322 320 312 313 318 320 314 319 321 320 319 317 317 318 318 317 316
323 319 322 320 321 320 318 319 319 320 317 314 312 312 312 312 313 314 312 307 308 308 308 310 319 319 308 301 298 296 297 300 301 317 317 317 319 318 318 317 315 316 315
Wind_Speed
17 19 20 20 18 18 18 17 16 15 12 10 9 9 11 10 10 10 13 11 10 9 9 8 8 6 7 6 6 5 5 5 5 5 5 6 7 7 6 5 6 6 6
17 18 20 20 21 20 19 18 18 16 15 11 10 8 8 10 10 9 11 11 11 10 9 10 8 7 6 7 6 6 4 4 4 4 3 4 3 4 5 6 6 8 7
20 19 21 22 20 22 20 18 18 17 16 15 10 8 7 7 7 10 10 12 13 13 12 12 10 7 6 7 8 7 7 6 4 7 4 4 3 3 2 4 5 8 7
20 20 20 21 23 24 21 19 18 18 16 16 13 14 13 13 12 11 10 10 12 13 14 13 11 9 7 9 8 6 7 7 7 4 6 5 3 4 3 3 4 6 8
19 22 23 23 25 20 21 19 17 17 16 17 17 14 15 12 11 10 11 10 9 12 13 13 12 9 7 9 9 8 8 7 8 6 3 4 5 5 5 7 2 4 5
12 18 19 19 19 19 18 17 18 17 17 17 19 18 17 14 11 11 10 10 9 9 12 12 10 8 8 10 10 10 9 9 8 7 7 6 5 5 6 7 7 6 2
10 9 14 15 16 19 18 10 11 16 17 19 18 19 19 16 16 14 11 11 9 8 10 10 8 7 9 9 9 10 11 11 10 9 8 8 9 6 5 6 7 6 2
16 5 8 10 12 12 13 15 14 12 11 14 15 14 16 13 12 12 11 11 10 9 9 9 8 8 7 7 7 9 10 10 10 13 11 7 7 7 8 7 5 5 5
13 12 8 4 6 9 13 14 15 14 14 15 13 15 15 16 13 14 12 11 10 8 9 8 6 5 5 7 7 7 10 10 11 11 10 10 8 7 8 7 7 7 9
13 12 11 10 7 7 9 11 12 16 15 13 12 12 14 15 15 12 14 13 11 9 6 5 4 3 2 4 7 8 10 11 10 9 11 10 8 8 5 6 7 7 8
13 13 12 11 10 7 4 8 11 12 11 11 11 12 13 15 12 12 12 12 8 7 6 4 5 7 8 5 7 11 13 12 12 11 11 11 7 6 3 6 6 7 7
10 9 9 9 9 10 8 7 6 9 7 9 11 12 13 13 13 13 12 9 8 8 10 9 7 7 9 14 13 13 12 11 11 11 7 6 6 7 6 5 6 7 8
8 8 9 10 11 7 6 5 4 4 7 3 9 11 11 13 14 12 12 12 13 12 7 5 8 14 14 14 11 10 7 3 5 7 8 6 6 7 5 5 5 6 5
8 11 11 12 13 12 11 9 9 11 8 7 6 10 10 12 12 10 10 13 14 12 8 9 16 18 7 6 9 7 3 4 5 4 6 7 5 5 5 5 6 6 6
10 11 13 14 16 16 16 15 13 12 10 10 9 8 8 8 9 11 11 12 11 10 11 13 13 10 9 4 2 1 1 3 4 3 2 4 5 7 4 5 3 5 3
10 11 13 14 15 16 15 14 11 11 8 8 7 5 5 8 11 11 13 14 13 10 8 4 5 6 6 6 2 3 5 5 2 4 5 6 8 7 6 9 7 4 3
8 8 8 9 10 11 11 11 11 10 10 9 7 5 6 7 10 10 11 12 11 9 9 10 12 12 9 12 2 4 5 4 4 5 6 6 5 7 7 12 13 11 9
9 8 7 7 7 8 9 11 10 9 8 9 8 7 8 8 5 6 8 10 8 11 10 10 9 8 6 12 6 5 4 4 5 5 6 7 6 6 7 8 8 7 6
6 7 7 7 7 8 10 11 11 11 12 11 9 9 9 9 7 7 9 9 9 10 7 6 4 7 6 8 10 8 6 6 6 7 7 7 7 5 5 7 6 4 4
7 7 7 7 8 9 11 13 14 13 13 15 13 11 11 10 10 12 12 10 8 8 8 8 7 5 10 7 10 8 6 8 7 7 7 8 5 3 4 5 4 3 4
8 8 10 11 12 13 14 15 15 15 16 15 16 14 14 12 10 8 9 10 9 10 11 10 8 8 9 9 8 5 7 7 6 5 4 4 1 4 7 4 4 5 2
12 12 11 12 14 14 15 17 19 18 16 16 15 16 15 11 8 12 9 10 10 12 11 10 10 8 9 10 8 8 8 6 6 4 4 5 3 7 7 7 8 7 4
9 11 11 13 14 15 17 20 21 19 18 18 16 12 13 11 10 11 11 9 10 10 8 9 10 9 9 9 9 10 8 5 6 7 8 8 10 13 12 9 5 2 4
9 9 10 13 15 16 16 17 20 20 14 14 15 10 10 6 5 4 7 8 9 11 10 8 9 9 9 8 7 7 7 7 7 9 6 7 8 10 8 5 4 5 5
6 7 9 11 13 15 16 18 15 9 6 6 5 9 12 11 9 8 2 8 4 11 10 8 10 10 8 7 6 5 6 5 5 6 4 3 3 4 4 4 4 3 4
4 6 8 9 12 16 15 19 18 16 17 14 14 12 8 9 7 8 8 21 13 15 12 9 9 6 10 12 9 10 9 8 2 4 4 3 2 2 2 3 4 3 2
Wind_Direction
211 210 210 212 214 213 213 214 210 207 197 198 202 220 227 230 234 235 244 252 251 244 236 248 259 245 249 244 230 252 250 257 250 270 251 247 244 246 237 222 228 220 211
214 208 210 211 212 214 212 208 212 203 201 202 203 211 213 229 239 240 243 238 239 239 243 253 257 254 251 231 229 228 255 253 224 263 288 278 209 227 230 230 226 220 206
221 213 207 208 210 213 209 209 205 203 203 205 203 209 221 233 224 229 233 231 228 234 238 247 255 252 244 238 223 215 222 266 217 227 273 258 282 323 177 224 224 228 221
227 223 211 204 209 214 209 207 204 202 202 196 202 205 214 220 224 230 230 231 228 235 241 246 248 245 245 245 238 223 237 242 258 229 226 245 313 300 289 189 206 225 240
232 225 215 209 211 208 210 205 198 202 202 197 205 205 217 225 231 229 233 229 231 235 235 237 239 240 242 247 243 232 225 234 258 249 208 237 242 238 258 289 224 212 227
275 236 225 216 215 213 211 205 199 201 199 199 204 208 217 221 225 223 225 225 225 225 222 234 239 250 255 246 239 236 232 237 246 258 245 235 230 223 224 246 281 294 264
335 245 229 217 212 209 211 197 222 213 206 200 204 209 217 215 215 218 229 229 226 225 224 222 232 239 243 247 246 234 233 227 231 233 247 248 245 232 231 257 274 281 269
4 333 214 211 208 202 191 187 187 214 209 216 227 230 223 221 222 224 227 231 231 231 223 218 229 246 256 260 257 257 257 245 237 238 231 235 239 236 235 247 248 269 265
30 39 66 133 164 179 188 191 181 204 212 209 207 215 220 226 225 223 221 230 235 233 232 221 228 249 270 287 282 263 258 251 245 242 237 235 232 237 241 231 227 245 277
45 56 73 91 109 150 176 186 192 196 216 222 217 225 230 227 228 224 220 218 227 226 222 217 224 250 302 313 299 287 276 260 249 235 226 232 238 241 223 234 229 232 254
63 67 69 65 67 74 134 178 192 196 196 223 237 232 232 227 226 231 227 224 207 206 170 107 42 357 325 301 289 277 274 264 259 237 216 217 234 238 237 225 215 218 231
14 3 1 352 355 32 44 38 338 167 192 210 227 215 227 236 227 219 217 218 197 146 125 95 40 359 326 311 297 283 276 268 261 248 221 206 223 224 219 210 201 217 219
4 13 13 16 21 27 29 277 88 26 45 272 231 235 222 223 224 215 199 178 159 137 125 77 22 349 321 314 298 285 274 250 211 214 181 151 168 175 177 181 189 211 203
14 9 7 4 4 8 9 3 7 28 7 351 286 257 238 229 225 204 177 154 162 157 162 166 190 227 266 284 294 283 234 176 141 139 139 140 121 123 144 159 213 215 202
25 19 11 3 0 1 359 359 360 359 357 335 324 287 264 228 207 191 165 154 157 172 177 180 198 194 150 178 233 309 284 230 195 138 19 56 112 94 95 134 163 197 171
39 23 14 5 359 356 351 345 339 332 329 323 315 276 219 197 195 182 172 169 173 170 184 198 179 180 132 133 171 235 254 264 212 138 110 84 95 100 97 103 85 49 126
50 35 21 360 348 343 338 328 324 321 314 313 298 244 213 204 189 174 164 166 173 170 186 187 178 180 166 137 209 209 238 219 143 130 117 108 98 108 105 90 85 69 44
26 18 3 347 341 335 332 322 309 287 281 287 284 241 201 191 194 179 177 169 183 194 195 193 200 158 142 121 164 168 184 136 122 116 109 104 102 85 120 115 112 110 102
16 3 351 341 345 351 346 336 321 295 278 261 237 226 203 192 181 186 198 203 191 192 195 155 169 146 101 119 147 160 151 127 107 94 84 94 95 72 73 107 96 87 78
14 359 350 334 328 331 323 312 305 297 281 276 260 221 199 202 201 205 204 202 193 179 141 136 160 134 122 127 128 151 141 136 121 115 103 61 72 96 70 99 90 100 81
6 356 345 333 327 323 318 301 296 284 281 279 263 243 214 205 202 196 195 178 160 149 143 132 137 119 115 113 104 119 143 138 135 135 133 95 15 99 90 49 79 85 81
357 351 344 341 338 327 313 303 298 294 286 270 263 236 229 212 187 188 174 166 150 142 135 128 115 106 104 106 105 95 85 102 121 119 90 87 123 102 96 93 96 128 149
358 5 352 336 328 325 322 303 291 288 276 267 255 228 218 205 189 177 163 154 146 129 125 123 119 120 113 110 90 94 96 84 116 98 82 103 110 110 89 77 100 166 62
19 348 346 348 340 327 317 298 287 281 263 237 239 211 193 163 148 170 166 149 139 136 135 122 127 133 124 135 129 134 124 133 123 141 112 80 81 70 100 123 71 49 36
9 5 360 1 342 345 336 336 337 338 294 213 196 69 74 74 64 43 320 108 112 127 133 132 141 141 155 142 123 134 146 135 99 136 142 160 136 110 95 80 45 28 22
38 15 11 9 8 13 8 14 25 44 62 71 79 76 81 78 67 65 24 38 69 81 89 97 124 86 83 107 114 103 99 103 109 155 157 155 152 93 70 39 11 16 8